This is the latest recevied weather packets stored in our database for station/object K4DFD-13. If no packets are shown the sender has not sent any weather packets the latest 10 day(s).
| Time | Temp. | Humidity | Pressure | Rain* | Wind** | Luminosity | Snow |
|---|---|---|---|---|---|---|---|
| 1777611377 | 5° C | 80% | 1016.5 hPa | 0 mm | - | - | - |
| 1777611076 | 5° C | 80% | 1016.4 hPa | 0 mm | - | - | - |
| 1777610776 | 5° C | 79% | 1016.4 hPa | 0 mm | - | - | - |
| 1777610476 | 5° C | 78% | 1016.5 hPa | 0 mm | - | - | - |
| 1777610175 | 5.56° C | 77% | 1016.5 hPa | 0 mm | - | - | - |
| 1777609875 | 6.11° C | 75% | 1016.6 hPa | 0 mm | - | - | - |
| 1777609575 | 6.11° C | 74% | 1016.5 hPa | 0 mm | - | - | - |
| 1777609274 | 6.67° C | 72% | 1016.4 hPa | 0 mm | - | - | - |
| 1777608974 | 7.22° C | 71% | 1016.3 hPa | 0 mm | - | - | - |
| 1777608674 | 7.22° C | 68% | 1016.3 hPa | 0 mm | - | - | - |
| 1777608373 | 7.22° C | 66% | 1016.2 hPa | 0 mm | - | - | - |
| 1777608073 | 7.22° C | 67% | 1016.2 hPa | 0 mm | - | - | - |
| 1777607773 | 7.22° C | 68% | 1016.2 hPa | 0 mm | - | - | - |
| 1777607472 | 7.22° C | 68% | 1016.4 hPa | 0 mm | - | - | - |
| 1777607172 | 7.22° C | 67% | 1016.3 hPa | 0 mm | - | - | - |
| 1777606872 | 7.22° C | 68% | 1016.3 hPa | 0 mm | - | - | - |
| 1777606571 | 6.67° C | 69% | 1016.3 hPa | 0 mm | - | - | - |
| 1777606271 | 6.67° C | 70% | 1016.3 hPa | 0 mm | - | - | - |
| 1777605970 | 6.67° C | 71% | 1016.4 hPa | 0 mm | - | - | - |
| 1777605670 | 7.22° C | 70% | 1016.4 hPa | 0 mm | - | - | - |
| 1777605369 | 7.22° C | 69% | 1016.4 hPa | 0 mm | - | - | - |
| 1777605069 | 7.22° C | 68% | 1016.5 hPa | 0 mm | - | - | - |
| 1777604769 | 7.22° C | 67% | 1016.4 hPa | 0 mm | - | - | - |
| 1777604468 | 7.78° C | 67% | 1016.4 hPa | 0 mm | - | - | - |
| 1777604168 | 7.22° C | 67% | 1016.6 hPa | 0 mm | - | - | - |
* Rain latest hour (hover to see other rain measurements)
** Current wind speed in m/s (hover to see current wind gust speed)